Year,Month,Day,Hour,Minute,Value (Times are PST for windspeed in km/hr)
2016,10,13,00,00,1.90
2016,10,13,00,01,0.00
2016,10,13,00,02,0.00
2016,10,13,00,03,0.10
2016,10,13,00,04,0.40
2016,10,13,00,05,5.30
2016,10,13,00,06,3.30
2016,10,13,00,07,0.90
2016,10,13,00,08,2.10
2016,10,13,00,09,0.90
2016,10,13,00,10,1.60
2016,10,13,00,11,2.30
2016,10,13,00,12,0.70
2016,10,13,00,13,6.00
2016,10,13,00,14,0.60
2016,10,13,00,15,3.20
2016,10,13,00,16,2.70
2016,10,13,00,17,0.60
2016,10,13,00,18,0.80
2016,10,13,00,19,0.00
2016,10,13,00,20,3.80
2016,10,13,00,21,0.90
2016,10,13,00,22,8.00
2016,10,13,00,23,2.10
2016,10,13,00,24,0.00
2016,10,13,00,25,0.00
2016,10,13,00,26,0.00
2016,10,13,00,27,7.10
2016,10,13,00,28,0.40
2016,10,13,00,29,0.00
2016,10,13,00,30,0.00
2016,10,13,00,31,0.00
2016,10,13,00,32,0.00
2016,10,13,00,33,1.80
2016,10,13,00,34,3.40
2016,10,13,00,35,0.00
2016,10,13,00,36,1.00
2016,10,13,00,37,0.40
2016,10,13,00,38,0.00
2016,10,13,00,39,0.00
2016,10,13,00,40,0.00
2016,10,13,00,41,0.00
2016,10,13,00,42,0.00
2016,10,13,00,43,6.30
2016,10,13,00,44,5.50
2016,10,13,00,45,2.90
2016,10,13,00,46,0.60
2016,10,13,00,47,5.40
2016,10,13,00,48,0.00
2016,10,13,00,49,1.50
2016,10,13,00,50,9.30
2016,10,13,00,51,7.40
2016,10,13,00,52,5.10
2016,10,13,00,53,0.50
2016,10,13,00,54,1.10
2016,10,13,00,55,0.00
2016,10,13,00,56,0.00
2016,10,13,00,57,0.00
2016,10,13,00,58,0.00
2016,10,13,00,59,4.00
2016,10,13,01,00,7.30
2016,10,13,01,01,6.20
2016,10,13,01,02,2.70
2016,10,13,01,03,3.60
2016,10,13,01,04,2.30
2016,10,13,01,05,3.90
2016,10,13,01,06,5.00
2016,10,13,01,07,0.00
2016,10,13,01,08,0.60
2016,10,13,01,09,6.50
2016,10,13,01,10,8.30
2016,10,13,01,11,1.30
2016,10,13,01,12,1.40
2016,10,13,01,13,1.50
2016,10,13,01,14,2.50
2016,10,13,01,15,2.20
2016,10,13,01,16,2.00
2016,10,13,01,17,5.60
2016,10,13,01,18,0.00
2016,10,13,01,19,0.00
2016,10,13,01,20,0.00
2016,10,13,01,21,2.80
2016,10,13,01,22,1.30
2016,10,13,01,23,0.00
2016,10,13,01,24,0.00
2016,10,13,01,25,0.00
2016,10,13,01,26,1.20
2016,10,13,01,27,0.00
2016,10,13,01,28,1.00
2016,10,13,01,29,0.00
2016,10,13,01,30,2.40
2016,10,13,01,31,1.40
2016,10,13,01,32,0.00
2016,10,13,01,33,0.00
2016,10,13,01,34,0.10
2016,10,13,01,35,1.00
2016,10,13,01,36,0.40
2016,10,13,01,37,0.00
2016,10,13,01,38,1.10
2016,10,13,01,39,1.50
2016,10,13,01,40,4.70
2016,10,13,01,41,2.00
2016,10,13,01,42,1.90
2016,10,13,01,43,0.20
2016,10,13,01,44,4.80
2016,10,13,01,45,7.50
2016,10,13,01,46,3.20
2016,10,13,01,47,2.80
2016,10,13,01,48,7.70
2016,10,13,01,49,6.50
2016,10,13,01,50,7.80
2016,10,13,01,51,7.40
2016,10,13,01,52,9.60
2016,10,13,01,53,6.10
2016,10,13,01,54,6.90
2016,10,13,01,55,8.50
2016,10,13,01,56,6.10
2016,10,13,01,57,4.00
2016,10,13,01,58,4.20
2016,10,13,01,59,11.60
2016,10,13,02,00,11.30
2016,10,13,02,01,11.30
2016,10,13,02,02,6.80
2016,10,13,02,03,11.50
2016,10,13,02,04,12.20
2016,10,13,02,05,8.40
2016,10,13,02,06,13.50
2016,10,13,02,07,12.50
2016,10,13,02,08,10.30
2016,10,13,02,09,9.30
2016,10,13,02,10,12.30
2016,10,13,02,11,10.30
2016,10,13,02,12,12.70
2016,10,13,02,13,12.70
2016,10,13,02,14,11.00
2016,10,13,02,15,9.50
2016,10,13,02,16,9.50
2016,10,13,02,17,12.00
2016,10,13,02,18,9.80
2016,10,13,02,19,6.10
2016,10,13,02,20,7.20
2016,10,13,02,21,5.90
2016,10,13,02,22,10.20
2016,10,13,02,23,5.40
2016,10,13,02,24,10.70
2016,10,13,02,25,11.50
2016,10,13,02,26,8.90
2016,10,13,02,27,8.50
2016,10,13,02,28,5.60
2016,10,13,02,29,8.40
2016,10,13,02,30,11.00
2016,10,13,02,31,11.20
2016,10,13,02,32,10.50
2016,10,13,02,33,8.60
2016,10,13,02,34,10.60
2016,10,13,02,35,8.90
2016,10,13,02,36,13.60
2016,10,13,02,37,11.80
2016,10,13,02,38,12.50
2016,10,13,02,39,12.30
2016,10,13,02,40,8.40
2016,10,13,02,41,8.60
2016,10,13,02,42,12.20
2016,10,13,02,43,13.90
2016,10,13,02,44,9.50
2016,10,13,02,45,11.10
2016,10,13,02,46,10.30
2016,10,13,02,47,8.40
2016,10,13,02,48,12.30
2016,10,13,02,49,12.10
2016,10,13,02,50,12.50
2016,10,13,02,51,13.50
2016,10,13,02,52,14.00
2016,10,13,02,53,11.40
2016,10,13,02,54,15.10
2016,10,13,02,55,20.90
2016,10,13,02,56,14.00
2016,10,13,02,57,12.20
2016,10,13,02,58,11.00
2016,10,13,02,59,10.50
2016,10,13,03,00,10.50
2016,10,13,03,01,9.40
2016,10,13,03,02,12.40
2016,10,13,03,03,14.30
2016,10,13,03,04,14.30
2016,10,13,03,05,7.70
2016,10,13,03,06,13.50
2016,10,13,03,07,11.30
2016,10,13,03,08,13.20
2016,10,13,03,09,15.90
2016,10,13,03,10,14.40
2016,10,13,03,11,12.60
2016,10,13,03,12,12.60
2016,10,13,03,13,14.00
2016,10,13,03,14,12.80
2016,10,13,03,15,14.00
2016,10,13,03,16,15.00
2016,10,13,03,17,10.70
2016,10,13,03,18,16.30
2016,10,13,03,19,13.60
2016,10,13,03,20,9.80
2016,10,13,03,21,8.20
2016,10,13,03,22,12.70
2016,10,13,03,23,13.40
2016,10,13,03,24,10.50
2016,10,13,03,25,11.40
2016,10,13,03,26,10.60
2016,10,13,03,27,13.10
2016,10,13,03,28,12.90
2016,10,13,03,29,18.50
2016,10,13,03,30,13.00
2016,10,13,03,31,12.70
2016,10,13,03,32,11.10
2016,10,13,03,33,11.10
2016,10,13,03,34,13.20
2016,10,13,03,35,11.00
2016,10,13,03,36,11.50
2016,10,13,03,37,12.10
2016,10,13,03,38,13.60
2016,10,13,03,39,11.70
2016,10,13,03,40,12.70
2016,10,13,03,41,17.50
2016,10,13,03,42,10.90
2016,10,13,03,43,13.70
2016,10,13,03,44,11.30
2016,10,13,03,45,11.60
2016,10,13,03,46,12.90
2016,10,13,03,47,10.70
2016,10,13,03,48,10.30
2016,10,13,03,49,6.90
2016,10,13,03,50,12.90
2016,10,13,03,51,9.30
2016,10,13,03,52,11.80
2016,10,13,03,53,11.30
2016,10,13,03,54,10.20
2016,10,13,03,55,11.30
2016,10,13,03,56,13.20
2016,10,13,03,57,11.40
2016,10,13,03,58,11.50
2016,10,13,03,59,7.80
2016,10,13,04,00,9.30
2016,10,13,04,01,9.00
2016,10,13,04,02,9.10
2016,10,13,04,03,13.30
2016,10,13,04,04,14.30
2016,10,13,04,05,13.90
2016,10,13,04,06,11.60
2016,10,13,04,07,10.40
2016,10,13,04,08,8.60
2016,10,13,04,09,7.70
2016,10,13,04,10,8.00
2016,10,13,04,11,11.30
2016,10,13,04,12,13.80
2016,10,13,04,13,11.50
2016,10,13,04,14,7.50
2016,10,13,04,15,13.00
2016,10,13,04,16,8.50
2016,10,13,04,17,12.40
2016,10,13,04,18,12.10
2016,10,13,04,19,12.30
2016,10,13,04,20,9.40
2016,10,13,04,21,10.40
2016,10,13,04,22,8.50
2016,10,13,04,23,10.30
2016,10,13,04,24,9.90
2016,10,13,04,25,11.70
2016,10,13,04,26,8.20
2016,10,13,04,27,9.50
2016,10,13,04,28,8.70
2016,10,13,04,29,7.50
2016,10,13,04,30,11.10
2016,10,13,04,31,10.40
2016,10,13,04,32,10.30
2016,10,13,04,33,8.60
2016,10,13,04,34,6.30
2016,10,13,04,35,6.40
2016,10,13,04,36,9.60
2016,10,13,04,37,8.70
2016,10,13,04,38,6.70
2016,10,13,04,39,8.70
2016,10,13,04,40,5.70
2016,10,13,04,41,4.00
2016,10,13,04,42,3.50
2016,10,13,04,43,0.10
2016,10,13,04,44,0.70
2016,10,13,04,45,0.00
2016,10,13,04,46,0.10
2016,10,13,04,47,4.80
2016,10,13,04,48,0.00
2016,10,13,04,49,1.50
2016,10,13,04,50,0.00
2016,10,13,04,51,0.00
2016,10,13,04,52,0.00
2016,10,13,04,53,0.80
2016,10,13,04,54,0.50
2016,10,13,04,55,0.00
2016,10,13,04,56,0.00
2016,10,13,04,57,0.00
2016,10,13,04,58,0.00
2016,10,13,04,59,0.00
2016,10,13,05,00,0.00
2016,10,13,05,01,0.10
2016,10,13,05,02,2.00
2016,10,13,05,03,0.80
2016,10,13,05,04,0.00
2016,10,13,05,05,0.00
2016,10,13,05,06,0.00
2016,10,13,05,07,0.00
2016,10,13,05,08,0.00
2016,10,13,05,09,0.00
2016,10,13,05,10,0.00
2016,10,13,05,11,0.00
2016,10,13,05,12,0.00
2016,10,13,05,13,0.00
2016,10,13,05,14,0.10
2016,10,13,05,15,0.00
2016,10,13,05,16,0.00
2016,10,13,05,17,0.00
2016,10,13,05,18,0.00
2016,10,13,05,19,0.00
2016,10,13,05,20,0.00
2016,10,13,05,21,0.00
2016,10,13,05,22,0.00
2016,10,13,05,23,0.00
2016,10,13,05,24,2.50
2016,10,13,05,25,1.30
2016,10,13,05,26,0.00
2016,10,13,05,27,0.00
2016,10,13,05,28,0.00
2016,10,13,05,29,0.00
2016,10,13,05,30,0.00
2016,10,13,05,31,0.10
2016,10,13,05,32,0.00
2016,10,13,05,33,2.40
2016,10,13,05,34,2.10
2016,10,13,05,35,0.00
2016,10,13,05,36,0.00
2016,10,13,05,37,0.00
2016,10,13,05,38,0.00
2016,10,13,05,39,0.10
2016,10,13,05,40,2.40
2016,10,13,05,41,6.00
2016,10,13,05,42,2.80
2016,10,13,05,43,0.10
2016,10,13,05,44,0.00
2016,10,13,05,45,0.00
2016,10,13,05,46,4.30
2016,10,13,05,47,7.20
2016,10,13,05,48,7.80
2016,10,13,05,49,7.60
2016,10,13,05,50,7.70
2016,10,13,05,51,7.10
2016,10,13,05,52,7.40
2016,10,13,05,53,7.00
2016,10,13,05,54,5.10
2016,10,13,05,55,5.80
2016,10,13,05,56,5.10
2016,10,13,05,57,4.80
2016,10,13,05,58,7.20
2016,10,13,05,59,4.80
2016,10,13,06,00,3.40
2016,10,13,06,01,7.60
2016,10,13,06,02,4.90
2016,10,13,06,03,5.60
2016,10,13,06,04,3.30
2016,10,13,06,05,4.50
2016,10,13,06,06,4.20
2016,10,13,06,07,0.80
2016,10,13,06,08,0.00
2016,10,13,06,09,0.10
2016,10,13,06,10,1.50
2016,10,13,06,11,4.50
2016,10,13,06,12,3.80
2016,10,13,06,13,0.00
2016,10,13,06,14,0.10
2016,10,13,06,15,0.00
2016,10,13,06,16,0.00
2016,10,13,06,17,0.00
2016,10,13,06,18,0.00
2016,10,13,06,19,1.70
2016,10,13,06,20,0.00
2016,10,13,06,21,0.00
2016,10,13,06,22,0.00
2016,10,13,06,23,0.00
2016,10,13,06,24,0.60
2016,10,13,06,25,0.60
2016,10,13,06,26,0.00
2016,10,13,06,27,0.00
2016,10,13,06,28,0.00
2016,10,13,06,29,0.00
2016,10,13,06,30,0.10
2016,10,13,06,31,1.00
2016,10,13,06,32,0.00
2016,10,13,06,33,0.00
2016,10,13,06,34,0.00
2016,10,13,06,35,1.40
2016,10,13,06,36,0.10
2016,10,13,06,37,0.00
2016,10,13,06,38,1.80
2016,10,13,06,39,0.00
2016,10,13,06,40,0.00
2016,10,13,06,41,0.00
2016,10,13,06,42,0.00
2016,10,13,06,43,0.00
2016,10,13,06,44,0.10
2016,10,13,06,45,0.00
2016,10,13,06,46,0.10
2016,10,13,06,47,0.00
2016,10,13,06,48,1.60
2016,10,13,06,49,4.30
2016,10,13,06,50,3.40
2016,10,13,06,51,0.30
2016,10,13,06,52,0.60
2016,10,13,06,53,0.00
2016,10,13,06,54,0.10
2016,10,13,06,55,0.00
2016,10,13,06,56,0.00
2016,10,13,06,57,0.00
2016,10,13,06,58,0.00
2016,10,13,06,59,0.00
2016,10,13,07,00,0.00
2016,10,13,07,01,0.00
2016,10,13,07,02,0.00
2016,10,13,07,03,0.00
2016,10,13,07,04,0.00
2016,10,13,07,05,0.00
2016,10,13,07,06,0.00
2016,10,13,07,07,0.00
2016,10,13,07,08,0.00
2016,10,13,07,09,0.00
2016,10,13,07,10,0.10
2016,10,13,07,11,0.00
2016,10,13,07,12,0.00
2016,10,13,07,13,0.00
2016,10,13,07,14,0.00
2016,10,13,07,15,0.00
2016,10,13,07,16,0.00
2016,10,13,07,17,0.00
2016,10,13,07,18,0.00
2016,10,13,07,19,0.00
2016,10,13,07,20,0.10
2016,10,13,07,21,0.00
2016,10,13,07,22,0.00
2016,10,13,07,23,0.00
2016,10,13,07,24,0.00
2016,10,13,07,25,0.00
2016,10,13,07,26,0.00
2016,10,13,07,27,0.00
2016,10,13,07,28,0.00
2016,10,13,07,29,0.00
2016,10,13,07,30,0.00
2016,10,13,07,31,0.00
2016,10,13,07,32,0.00
2016,10,13,07,33,0.00
2016,10,13,07,34,0.00
2016,10,13,07,35,0.00
2016,10,13,07,36,0.00
2016,10,13,07,37,0.00
2016,10,13,07,38,0.00
2016,10,13,07,39,0.00
2016,10,13,07,40,0.00
2016,10,13,07,41,0.00
2016,10,13,07,42,0.00
2016,10,13,07,43,0.00
2016,10,13,07,44,0.00
2016,10,13,07,45,0.00
2016,10,13,07,46,0.00
2016,10,13,07,47,0.00
2016,10,13,07,48,0.00
2016,10,13,07,49,0.10
2016,10,13,07,50,0.00
2016,10,13,07,51,0.00
2016,10,13,07,52,0.00
2016,10,13,07,53,0.00
2016,10,13,07,54,0.00
2016,10,13,07,55,0.00
2016,10,13,07,56,0.00
2016,10,13,07,57,0.00
2016,10,13,07,58,0.00
2016,10,13,07,59,0.00
2016,10,13,08,00,0.00
2016,10,13,08,01,0.00
2016,10,13,08,02,0.00
2016,10,13,08,03,0.00
2016,10,13,08,04,0.00
2016,10,13,08,05,0.00
2016,10,13,08,06,0.00
2016,10,13,08,07,0.10
2016,10,13,08,08,3.80
2016,10,13,08,09,4.40
2016,10,13,08,10,1.50
2016,10,13,08,11,0.10
2016,10,13,08,12,0.00
2016,10,13,08,13,0.00
2016,10,13,08,14,0.10
2016,10,13,08,15,0.00
2016,10,13,08,16,1.80
2016,10,13,08,17,3.10
2016,10,13,08,18,2.60
2016,10,13,08,19,0.00
2016,10,13,08,20,0.00
2016,10,13,08,21,0.00
2016,10,13,08,22,0.00
2016,10,13,08,23,0.00
2016,10,13,08,24,0.00
2016,10,13,08,25,0.00
2016,10,13,08,26,0.00
2016,10,13,08,27,0.00
2016,10,13,08,28,0.00
2016,10,13,08,29,0.00
2016,10,13,08,30,0.10
2016,10,13,08,31,8.30
2016,10,13,08,32,7.80
2016,10,13,08,33,1.80
2016,10,13,08,34,0.00
2016,10,13,08,35,0.80
2016,10,13,08,36,9.00
2016,10,13,08,37,6.00
2016,10,13,08,38,2.60
2016,10,13,08,39,0.00
2016,10,13,08,40,3.40
2016,10,13,08,41,5.50
2016,10,13,08,42,3.10
2016,10,13,08,43,0.00
2016,10,13,08,44,0.00
2016,10,13,08,45,0.00
2016,10,13,08,46,1.30
2016,10,13,08,47,7.60
2016,10,13,08,48,8.30
2016,10,13,08,49,6.90
2016,10,13,08,50,3.10
2016,10,13,08,51,0.00
2016,10,13,08,52,0.00
2016,10,13,08,53,0.10
2016,10,13,08,54,0.00
2016,10,13,08,55,0.00
2016,10,13,08,56,0.00
2016,10,13,08,57,0.00
2016,10,13,08,58,0.00
2016,10,13,08,59,0.00
2016,10,13,09,00,2.20
2016,10,13,09,01,7.50
2016,10,13,09,02,4.80
2016,10,13,09,03,1.20
2016,10,13,09,04,0.00
2016,10,13,09,05,2.60
2016,10,13,09,06,0.00
2016,10,13,09,07,0.00
2016,10,13,09,08,0.70
2016,10,13,09,09,1.10
2016,10,13,09,10,1.70
2016,10,13,09,11,0.00
2016,10,13,09,12,1.90
2016,10,13,09,13,6.50
2016,10,13,09,14,1.30
2016,10,13,09,15,0.00
2016,10,13,09,16,0.00
2016,10,13,09,17,0.00
2016,10,13,09,18,0.00
2016,10,13,09,19,0.00
2016,10,13,09,20,0.00
2016,10,13,09,21,0.10
2016,10,13,09,22,0.00
2016,10,13,09,23,0.00
2016,10,13,09,24,0.00
2016,10,13,09,25,0.50
2016,10,13,09,26,3.40
2016,10,13,09,27,1.50
2016,10,13,09,28,1.20
2016,10,13,09,29,0.50
2016,10,13,09,30,0.20
2016,10,13,09,31,0.00
2016,10,13,09,32,0.10
2016,10,13,09,33,3.80
2016,10,13,09,34,1.40
2016,10,13,09,35,3.40
2016,10,13,09,36,4.50
2016,10,13,09,37,0.00
2016,10,13,09,38,1.70
2016,10,13,09,39,0.10
2016,10,13,09,40,4.20
2016,10,13,09,41,5.40
2016,10,13,09,42,5.30
2016,10,13,09,43,0.00
2016,10,13,09,44,0.10
2016,10,13,09,45,5.80
2016,10,13,09,46,0.30
2016,10,13,09,47,0.00
2016,10,13,09,48,1.50
2016,10,13,09,49,1.40
2016,10,13,09,50,1.20
2016,10,13,09,51,0.10
2016,10,13,09,52,3.60
2016,10,13,09,53,7.50
2016,10,13,09,54,1.80
2016,10,13,09,55,3.60
2016,10,13,09,56,7.70
2016,10,13,09,57,8.90
2016,10,13,09,58,8.60
2016,10,13,09,59,4.80
2016,10,13,10,00,0.40
2016,10,13,10,01,0.00
2016,10,13,10,02,0.10
2016,10,13,10,03,0.10
2016,10,13,10,04,0.70
2016,10,13,10,05,0.80
2016,10,13,10,06,0.20
2016,10,13,10,07,1.10
2016,10,13,10,08,0.30
2016,10,13,10,09,0.50
2016,10,13,10,10,0.00
2016,10,13,10,11,0.00
2016,10,13,10,12,1.60
2016,10,13,10,13,0.50
2016,10,13,10,14,0.00
2016,10,13,10,15,0.00
2016,10,13,10,16,0.00
2016,10,13,10,17,0.00
2016,10,13,10,18,0.00
2016,10,13,10,19,0.00
2016,10,13,10,20,0.00
2016,10,13,10,21,0.00
2016,10,13,10,22,0.00
2016,10,13,10,23,0.00
2016,10,13,10,24,0.00
2016,10,13,10,25,0.60
2016,10,13,10,26,4.40
2016,10,13,10,27,0.00
2016,10,13,10,28,0.00
2016,10,13,10,29,0.00
2016,10,13,10,30,0.00
2016,10,13,10,31,0.00
2016,10,13,10,32,0.00
2016,10,13,10,33,0.10
2016,10,13,10,34,0.00
2016,10,13,10,35,0.00
2016,10,13,10,36,0.00
2016,10,13,10,37,0.00
2016,10,13,10,38,0.00
2016,10,13,10,39,0.00
2016,10,13,10,40,0.00
2016,10,13,10,41,0.00
2016,10,13,10,42,0.00
2016,10,13,10,43,0.00
2016,10,13,10,44,0.00
2016,10,13,10,45,0.00
2016,10,13,10,46,0.00
2016,10,13,10,47,0.00
2016,10,13,10,48,0.00
2016,10,13,10,49,0.00
2016,10,13,10,50,0.00
2016,10,13,10,51,0.00
2016,10,13,10,52,0.10
2016,10,13,10,53,0.00
2016,10,13,10,54,0.00
2016,10,13,10,55,0.00
2016,10,13,10,56,0.00
2016,10,13,10,57,0.00
2016,10,13,10,58,0.00
2016,10,13,10,59,0.00
2016,10,13,11,00,0.00
2016,10,13,11,01,0.00
2016,10,13,11,02,0.00
2016,10,13,11,03,0.00
2016,10,13,11,04,0.00
2016,10,13,11,05,0.00
2016,10,13,11,06,0.00
2016,10,13,11,07,0.00
2016,10,13,11,08,0.00
2016,10,13,11,09,0.00
2016,10,13,11,10,0.00
2016,10,13,11,11,0.00
2016,10,13,11,12,0.00
2016,10,13,11,13,0.00
2016,10,13,11,14,0.00
2016,10,13,11,15,0.00
2016,10,13,11,16,0.00
2016,10,13,11,17,0.00
2016,10,13,11,18,0.00
2016,10,13,11,19,0.00
2016,10,13,11,20,0.00
2016,10,13,11,21,0.00
2016,10,13,11,22,0.00
2016,10,13,11,23,0.00
2016,10,13,11,24,0.10
2016,10,13,11,25,0.00
2016,10,13,11,26,0.00
2016,10,13,11,27,0.00
2016,10,13,11,28,0.00
2016,10,13,11,29,0.00
2016,10,13,11,30,0.00
2016,10,13,11,31,0.00
2016,10,13,11,32,0.00
2016,10,13,11,33,0.00
2016,10,13,11,34,0.00
2016,10,13,11,35,0.00
2016,10,13,11,36,0.00
2016,10,13,11,37,0.00
2016,10,13,11,38,0.00
2016,10,13,11,39,0.00
2016,10,13,11,40,0.00
2016,10,13,11,41,0.00
2016,10,13,11,42,0.00
2016,10,13,11,43,0.00
2016,10,13,11,44,0.00
2016,10,13,11,45,0.00
2016,10,13,11,46,0.00
2016,10,13,11,47,0.00
2016,10,13,11,48,0.00
2016,10,13,11,49,0.00
2016,10,13,11,50,0.00
2016,10,13,11,51,0.00
2016,10,13,11,52,0.10
2016,10,13,11,53,0.10
2016,10,13,11,54,2.30
2016,10,13,11,55,0.70
2016,10,13,11,56,0.00
2016,10,13,11,57,0.00
2016,10,13,11,58,0.10
2016,10,13,11,59,0.00
2016,10,13,12,00,0.00
2016,10,13,12,01,0.00
2016,10,13,12,02,2.80
2016,10,13,12,03,7.70
2016,10,13,12,04,8.40
2016,10,13,12,05,4.60
2016,10,13,12,06,6.00
2016,10,13,12,07,0.10
2016,10,13,12,08,0.00
2016,10,13,12,09,0.00
2016,10,13,12,10,0.00
2016,10,13,12,11,0.00
2016,10,13,12,12,0.00
2016,10,13,12,13,0.00
2016,10,13,12,14,0.00
2016,10,13,12,15,0.00
2016,10,13,12,16,0.10
2016,10,13,12,17,0.00
2016,10,13,12,18,0.00
2016,10,13,12,19,0.00
2016,10,13,12,20,0.00
2016,10,13,12,21,0.00
2016,10,13,12,22,0.00
2016,10,13,12,23,0.00
2016,10,13,12,24,0.00
2016,10,13,12,25,0.00
2016,10,13,12,26,0.00
2016,10,13,12,27,0.00
2016,10,13,12,28,0.00
2016,10,13,12,29,0.00
2016,10,13,12,30,0.00
2016,10,13,12,31,0.00
2016,10,13,12,32,0.00
2016,10,13,12,33,0.00
2016,10,13,12,34,0.00
2016,10,13,12,35,3.00
2016,10,13,12,36,6.20
2016,10,13,12,37,2.50
2016,10,13,12,38,0.00
2016,10,13,12,39,0.40
2016,10,13,12,40,6.60
2016,10,13,12,41,7.60
2016,10,13,12,42,2.40
2016,10,13,12,43,2.10
2016,10,13,12,44,4.00
2016,10,13,12,45,3.10
2016,10,13,12,46,0.00
2016,10,13,12,47,3.20
2016,10,13,12,48,0.10
2016,10,13,12,49,1.40
2016,10,13,12,50,7.30
2016,10,13,12,51,8.90
2016,10,13,12,52,6.60
2016,10,13,12,53,0.80
2016,10,13,12,54,6.90
2016,10,13,12,55,3.00
2016,10,13,12,56,9.60
2016,10,13,12,57,5.90
2016,10,13,12,58,6.40
2016,10,13,12,59,7.40
2016,10,13,13,00,9.00
2016,10,13,13,01,7.40
2016,10,13,13,02,4.80
2016,10,13,13,03,4.50
2016,10,13,13,04,7.80
2016,10,13,13,05,3.70
2016,10,13,13,06,1.50
2016,10,13,13,07,5.30
2016,10,13,13,08,1.20
2016,10,13,13,09,9.80
2016,10,13,13,10,4.20
2016,10,13,13,11,4.70
2016,10,13,13,12,5.90
2016,10,13,13,13,4.60
2016,10,13,13,14,7.80
2016,10,13,13,15,8.10
2016,10,13,13,16,0.30
2016,10,13,13,17,11.30
2016,10,13,13,18,7.60
2016,10,13,13,19,3.00
2016,10,13,13,20,8.80
2016,10,13,13,21,10.00
2016,10,13,13,22,7.80
2016,10,13,13,23,5.80
2016,10,13,13,24,7.00
2016,10,13,13,25,1.90
2016,10,13,13,26,6.10
2016,10,13,13,27,6.80
2016,10,13,13,28,7.00
2016,10,13,13,29,5.70
2016,10,13,13,30,9.70
2016,10,13,13,31,9.10
2016,10,13,13,32,7.70
2016,10,13,13,33,5.20
2016,10,13,13,34,3.30
2016,10,13,13,35,6.80
2016,10,13,13,36,10.00
2016,10,13,13,37,6.00
2016,10,13,13,38,6.40
2016,10,13,13,39,11.70
2016,10,13,13,40,5.20
2016,10,13,13,41,5.20
2016,10,13,13,42,7.10
2016,10,13,13,43,6.40
2016,10,13,13,44,7.80
2016,10,13,13,45,9.40
2016,10,13,13,46,6.80
2016,10,13,13,47,10.80
2016,10,13,13,48,10.90
2016,10,13,13,49,5.40
2016,10,13,13,50,5.60
2016,10,13,13,51,8.20
2016,10,13,13,52,1.30
2016,10,13,13,53,6.00
2016,10,13,13,54,0.20
2016,10,13,13,55,10.70
2016,10,13,13,56,6.80
2016,10,13,13,57,8.10
2016,10,13,13,58,5.00
2016,10,13,13,59,7.20
2016,10,13,14,00,7.30
2016,10,13,14,01,0.90
2016,10,13,14,02,7.40
2016,10,13,14,03,9.00
2016,10,13,14,04,11.90
2016,10,13,14,05,7.60
2016,10,13,14,06,12.20
2016,10,13,14,07,5.50
2016,10,13,14,08,9.50
2016,10,13,14,09,8.40
2016,10,13,14,10,7.00
2016,10,13,14,11,6.70
2016,10,13,14,12,8.50
2016,10,13,14,13,6.00
2016,10,13,14,14,8.70
2016,10,13,14,15,4.30
2016,10,13,14,16,6.70
2016,10,13,14,17,7.40
2016,10,13,14,18,9.70
2016,10,13,14,19,10.70
2016,10,13,14,20,12.90
2016,10,13,14,21,9.00
2016,10,13,14,22,8.70
2016,10,13,14,23,3.10
2016,10,13,14,24,6.90
2016,10,13,14,25,6.90
2016,10,13,14,26,6.40
2016,10,13,14,27,13.50
2016,10,13,14,28,8.70
2016,10,13,14,29,11.70
2016,10,13,14,30,10.40
2016,10,13,14,31,8.70
2016,10,13,14,32,6.10
2016,10,13,14,33,1.20
2016,10,13,14,34,1.00
2016,10,13,14,35,8.50
2016,10,13,14,36,10.10
2016,10,13,14,37,6.50
2016,10,13,14,38,2.30
2016,10,13,14,39,10.30
2016,10,13,14,40,8.60
2016,10,13,14,41,5.60
2016,10,13,14,42,5.30
2016,10,13,14,43,7.40
2016,10,13,14,44,7.00
2016,10,13,14,45,8.00
2016,10,13,14,46,9.30
2016,10,13,14,47,8.20
2016,10,13,14,48,11.10
2016,10,13,14,49,6.40
2016,10,13,14,50,10.20
2016,10,13,14,51,9.90
2016,10,13,14,52,7.60
2016,10,13,14,53,11.30
2016,10,13,14,54,8.50
2016,10,13,14,55,10.70
2016,10,13,14,56,7.70
2016,10,13,14,57,9.40
2016,10,13,14,58,11.70
2016,10,13,14,59,9.70
2016,10,13,15,00,9.90
2016,10,13,15,01,6.40
2016,10,13,15,02,5.50
2016,10,13,15,03,8.70
2016,10,13,15,04,2.00
2016,10,13,15,05,5.10
2016,10,13,15,06,10.10
2016,10,13,15,07,1.00
2016,10,13,15,08,10.00
2016,10,13,15,09,8.50
2016,10,13,15,10,2.20
2016,10,13,15,11,5.30
2016,10,13,15,12,9.00
2016,10,13,15,13,9.10
2016,10,13,15,14,6.00
2016,10,13,15,15,10.70
2016,10,13,15,16,6.90
2016,10,13,15,17,9.00
2016,10,13,15,18,10.20
2016,10,13,15,19,6.40
2016,10,13,15,20,11.20
2016,10,13,15,21,8.60
2016,10,13,15,22,6.90
2016,10,13,15,23,8.90
2016,10,13,15,24,6.90
2016,10,13,15,25,5.90
2016,10,13,15,26,11.10
2016,10,13,15,27,11.70
2016,10,13,15,28,9.70
2016,10,13,15,29,11.10
2016,10,13,15,30,12.60
2016,10,13,15,31,11.20
2016,10,13,15,32,16.30
2016,10,13,15,33,14.50
2016,10,13,15,34,11.30
2016,10,13,15,35,10.60
2016,10,13,15,36,15.30
2016,10,13,15,37,12.20
2016,10,13,15,38,12.90
2016,10,13,15,39,10.80
2016,10,13,15,40,9.50
2016,10,13,15,41,12.20
2016,10,13,15,42,11.90
2016,10,13,15,43,11.10
2016,10,13,15,44,12.80
2016,10,13,15,45,15.60
2016,10,13,15,46,13.50
2016,10,13,15,47,12.90
2016,10,13,15,48,13.00
2016,10,13,15,49,12.00
2016,10,13,15,50,11.20
2016,10,13,15,51,6.70
2016,10,13,15,52,10.20
2016,10,13,15,53,8.80
2016,10,13,15,54,7.50
2016,10,13,15,55,2.70
2016,10,13,15,56,4.50
2016,10,13,15,57,6.80
2016,10,13,15,58,8.60
2016,10,13,15,59,10.70
2016,10,13,16,00,9.00
2016,10,13,16,01,6.30
2016,10,13,16,02,3.60
2016,10,13,16,03,10.70
2016,10,13,16,04,8.50
2016,10,13,16,05,2.10
2016,10,13,16,06,0.30
2016,10,13,16,07,5.30
2016,10,13,16,08,3.70
2016,10,13,16,09,8.70
2016,10,13,16,10,10.50
2016,10,13,16,11,6.60
2016,10,13,16,12,11.00
2016,10,13,16,13,9.70
2016,10,13,16,14,0.80
2016,10,13,16,15,9.60
2016,10,13,16,16,10.80
2016,10,13,16,17,13.20
2016,10,13,16,18,13.50
2016,10,13,16,19,12.40
2016,10,13,16,20,8.60
2016,10,13,16,21,5.90
2016,10,13,16,22,7.50
2016,10,13,16,23,9.20
2016,10,13,16,24,15.50
2016,10,13,16,25,14.80
2016,10,13,16,26,11.80
2016,10,13,16,27,10.10
2016,10,13,16,28,11.40
2016,10,13,16,29,6.50
2016,10,13,16,30,9.10
2016,10,13,16,31,11.60
2016,10,13,16,32,11.30
2016,10,13,16,33,7.30
2016,10,13,16,34,2.40
2016,10,13,16,35,8.00
2016,10,13,16,36,9.00
2016,10,13,16,37,9.80
2016,10,13,16,38,8.70
2016,10,13,16,39,11.00
2016,10,13,16,40,11.50
2016,10,13,16,41,13.40
2016,10,13,16,42,11.80
2016,10,13,16,43,10.10
2016,10,13,16,44,8.40
2016,10,13,16,45,11.80
2016,10,13,16,46,7.70
2016,10,13,16,47,12.70
2016,10,13,16,48,10.50
2016,10,13,16,49,8.50
2016,10,13,16,50,8.50
2016,10,13,16,51,13.70
2016,10,13,16,52,10.90
2016,10,13,16,53,13.30
2016,10,13,16,54,11.70
2016,10,13,16,55,5.00
2016,10,13,16,56,6.70
2016,10,13,16,57,10.60
2016,10,13,16,58,5.80
2016,10,13,16,59,14.40
2016,10,13,17,00,5.30
2016,10,13,17,01,12.10
2016,10,13,17,02,10.90
2016,10,13,17,03,11.00
2016,10,13,17,04,10.00
2016,10,13,17,05,11.90
2016,10,13,17,06,9.80
2016,10,13,17,07,4.40
2016,10,13,17,08,12.70
2016,10,13,17,09,11.00
2016,10,13,17,10,11.60
2016,10,13,17,11,4.80
2016,10,13,17,12,6.40
2016,10,13,17,13,11.90
2016,10,13,17,14,14.00
2016,10,13,17,15,13.90
2016,10,13,17,16,13.00
2016,10,13,17,17,14.00
2016,10,13,17,18,7.60
2016,10,13,17,19,9.70
2016,10,13,17,20,13.00
2016,10,13,17,21,11.30
2016,10,13,17,22,10.50
2016,10,13,17,23,14.90
2016,10,13,17,24,14.30
2016,10,13,17,25,14.60
2016,10,13,17,26,14.40
2016,10,13,17,27,14.40
2016,10,13,17,28,13.80
2016,10,13,17,29,12.50
2016,10,13,17,30,11.40
2016,10,13,17,31,14.60
2016,10,13,17,32,15.30
2016,10,13,17,33,13.80
2016,10,13,17,34,13.50
2016,10,13,17,35,14.80
2016,10,13,17,36,10.70
2016,10,13,17,37,10.20
2016,10,13,17,38,9.50
2016,10,13,17,39,14.50
2016,10,13,17,40,15.40
2016,10,13,17,41,13.30
2016,10,13,17,42,16.50
2016,10,13,17,43,14.90
2016,10,13,17,44,15.40
2016,10,13,17,45,14.30
2016,10,13,17,46,15.20
2016,10,13,17,47,17.30
2016,10,13,17,48,15.90
2016,10,13,17,49,13.50
2016,10,13,17,50,12.70
2016,10,13,17,51,14.30
2016,10,13,17,52,12.90
2016,10,13,17,53,17.10
2016,10,13,17,54,14.90
2016,10,13,17,55,16.20